Погода в Атбасаре

Погода в Атбасаре : погода сейчас, прогноз погоды и архив. Всё, что Вы хотите узнать о погоде в Атбасаре!

Хотите узнать прогноз погоды в Атбасаре? Тогда Вам сюда: Погода в Атбасаре

Поиск расширенной информации на нашем сайте:

Другие новости

Новости СМИ2

Главная страница сайта

Новости сайта

03.07.2017

Напоминаем, что на нашем специализированном сайте Метеоцентр.Азия вы можете получить высокодетализированные автоматические прогнозы погоды по пунктам России, СНГ и мира в авиационном формате (включающие направление и скорость ветра, видимость, явления погоды, количество и форму облачности, нижнюю и верхнюю границу облачности).


Погода в Атбасаре - сегодня

Время (UTC), дата Ветер
(°,м/с) 
Видим.   Явления Облачность Т
(°С)
Тd
(°С)
f(%) Тe
(°С)
Pmin
(гПа)
dP
(гПа)
Po
(мм)
O2
(г/м3)
Тmin Tmax R s Состояние
почвы
00 20.04.18 180 (Ю) н/о    10/10 1000 м 
[Sc]
+3.7 -0.6 73 +2  1013.8  -1.9  733  291           
03 20.04.18 230 (ЮЗ) 10 км  слаб. дождь  10/10 600 м 
[Sc]
+6.2 +4.6 89 +3  1013.8  0.4  733  288      0.0     
09 20.04.18 230 (ЮЗ) 12  20000 м    10/10 600 м 
[Cu med, cong]
+13.6 +3.5 50 +12  1012.5  -0.8  733  281           
12 20.04.18 230 (ЮЗ) 12  20000 м    9/3 1000 м средняя 
[Cu hum|Ac As]
+14.3 -0.4 36 +13  1011  -1.4  731  280           
21 20.04.18 230 (ЮЗ) н/о    10/9 600 м 
[Sc]
+9.5 -0.8 49 +7  1008.3  -1.2  729  284           
00 21.04.18 230 (ЮЗ) н/о    10/10 600 м 
[Sc]
+8 +0.9 61 +6  1007.8  -0.6  729  285           
06 21.04.18 230 (ЮЗ) 20000 м    10/0 средняя 
[As trans]
+14.3 +0 37 +13  1005.4  -1.3  727  278  +7.6         
09 21.04.18 230 (ЮЗ) 10{16}  20000 м    10/0 средняя 
[Ac As]
+16.6 +1.2 35 +16  1003  -2  726  275           
15 21.04.18 140 (ЮВ) 20000 м    8/8 1000 м 
[Sc]
+10.6 +5 68 +9  999.7  -3  723  280    +18.6       
18 21.04.18 160 (Ю) н/о    9/4 1000 м средняя 
[Sc|As trans]
+11.4 +4.2 61 +10  1000.3  0.7  724  279    +18.6       
21 21.04.18 160 (Ю) н/о    3/3 1000 м 
[Sc]
+7.4 +4 79 +6  1001.8  0.9  724  283           
03 22.04.18 290 (З) 10 км  слаб. дождь  10/8 300 м средняя 
[Frnb|As op]
+4.2 +3.2 93 +2  1005.9  1.5  727  288         
09 22.04.18 200 (Ю) 20000 м    10/10 1000 м 
[Cu Sc]
+10.6 +5.9 73 +10  1006.4  0.6  728  281           
12 22.04.18 200 (Ю) 20000 м    9/8 1000 м средняя 
[Cu med, cong|Ac lent]
+13.2 +5.2 58 +14  1006  -0.1  728  279           
21 22.04.18 тихо ()   н/о  дымка  ясно 
+4.2 +3 92 +4  1007.8  -0.1  728  288           
03 23.04.18 250 (З) 20000 м  {туман}  3/0 средняя 
[Ac lent]
+7.6 +5.6 87 +8  1009.3  1.4  730  285           
06 23.04.18 250 (З) 20000 м  {туман}  ясно 
+13.1 -1 38 +12  1009.1  0.5  730  281  +2.6         
09 23.04.18 230 (ЮЗ) 20000 м    8/8 600 м 
[Cu med, cong]
+14.8 +1.1 39 +14  1009.2  0.3  730  279           
12 23.04.18 230 (ЮЗ) 20000 м    8/8 600 м 
[Cu hum]
+15.4 +0.1 35 +15  1009.5  0.3  731  279           
15 23.04.18 180 (Ю) 20000 м    3/0 средняя, верхняя 
[Ac cuf|Ci sp]
+13 +1.8 46 +13  1009.2  -0.5  730  281    +16.6       
18 23.04.18 180 (Ю) н/о    5/0 средняя 
[Ac trans]
+11.3 +2.7 55 +10  1009.3  -0.1  730  282    +16.6       
21 23.04.18 180 (Ю) н/о    9/0 средняя 
[Ac As]
+8.5 +3.5 71 +7  1008.9  -0.8  729  284           
00 24.04.18 200 (Ю) 20000 м    10/0 средняя 
[Ac As]
+7.7 +3.3 74 +6  1007.7  -1.2  729  285           
06 24.04.18 250 (З) 20000 м    10/3 1000 м средняя 
[Sc|Ac As]
+12.8 +1.6 46 +12  1006.5  -0.4  728  280  +7.3         
09 24.04.18 270 (З) 20000 м  {дождь}  10/3 300 м средняя 
[Frnb|As op]
+12.5 +1.7 48 +12  1006.2  -0.3  728  280           
Время (UTC), дата Ветер
(°,м/с) 
Видим.   Явления Облачность Т
(°С)
Тd
(°С)
f(%) Тe
(°С)
Pmin
(гПа)
dP
(гПа)
Po
(мм)
O2
(г/м3)
Тmin Tmax R s Состояние
почвы

Для получения пояснительной информации подведите курсор к названию столбца.

ПОГОДА в Атбасаре - архив

Всё, что Вы хотите узнать о погоде в Атбасаре - удобно и подробно!

Выберите нужную дату (начиная с 1 января 2015* года) и нажмите кнопку "Найти".
Будут отображены архивные сводки погоды по пункту Атбасар, начиная с указанной даты.


Отображать данные в формате CSV (для использования в таблицах Excel)


Внимание! Наш архив погоды предназначен исключительно для личного некоммерческого использования в познавательных целях. Если Вам необходимы официальные справки о состоянии погоды (для производственных, юридических, коммерческих и т.п. целей), обращайтесь в органы Росгидромета.

*Примечание: данная дата относится к архиву по метеостанциям СССР (Россия, СНГ, Балтия).
Архив по метеостанциям Зарубежной Европы и Азии (кроме Китая) хранится 10 дней, по другим регионам земного шара (Китай, Африка, Америка, Австралия, Океания) - 1 день.

Атбасар - район местоположения метеостанции


Название, широта, долгота, высота метеостанции:
Атбасар 51.8°ш. 68.4°д. 304 м над ур. моря [Казахстан]

Дополнительная информация

В oтличие oт бoльшинства пoгoдных сайтoв мы публикуем пoдрoбную метеoинфoрмацию в детальнoм прoфессиoнальнoм фoрмате.

Характеристики температуры и влажнoсти вoздуха измеряются на высoте 2 м в тени вдали oт зданий и деревьев.
Скoрoсть ветра измеряется на высoте 10 м (на урoвне рoста челoвека скoрoсть ветра ниже в 1.5-2 раза). Если метеoстанция нахoдится в гoрoде или в лесу, тo скoрoсть ветра занижена на 2-4 м/с пo сравнению с oткрытым местoм. Скoрoсть ветра над акватoриями крупных рек и oзёр, а также на вершинах хoлмoв на 2-5 м/с выше, чем в oбычных услoвиях.
Атмoсфернoе давление в разных тoчках местнoсти мoжет значительнo oтличаться oт давления на метеoстанции, в зависимoсти oт услoвий рельефа (при пoдъёме на 10 м давление пoнижается примернo на 1 мм рт.ст.).